{"data":{"norad_id":56385,"intl_designator":"2023-061M","name":"STARLINK-6173","alt_names":[],"object_type":"PAYLOAD","status":"ACTIVE","operator":null,"country":"US","launch_date":"2023-05-04","launch_site_code":"AFETR","launch_vehicle":null,"mission":null,"orbit_class":"UNKNOWN","rcs_meters":null,"size_class":null,"mass_kg":null,"dimensions":null,"purposes":["comms"],"wikipedia_slug":null,"has_3d_model":false,"image_url":null,"decayed_at":null,"tle_current":{"epoch":"2026-09-19T03:12:49.579488Z","epoch_age_seconds":230010,"freshness":"STALE","line1":"1 56385U 23061M   26262.13390717  .00000459  00000+0  26209-4 0  9998","line2":"2 56385  43.0011 185.4972 0001108 271.6667  88.4058 15.27575948186336","mean_motion":15.27575948,"eccentricity":0.0001108,"inclination_deg":43.0011,"raan_deg":185.4972,"arg_perigee_deg":271.6667,"mean_anomaly_deg":88.4058,"bstar":2.6209e-5,"rev_number":18633,"period_min":94.26699876267,"perigee_km":482.30100844838,"apogee_km":483.82144997597,"semimajor_km":6861.1982292122,"source":"CELESTRAK","updated_at":"2026-09-21T09:00:33.432191Z"}}}